Regional Weather Roundup
Issued by NWS

Home | Current Version | Previous Version | Graphics & Text | Print | Product List | Glossary On
Versions: 1 2 3 4 5 6 7 8 9 10 11 12 13 14 15 16 17 18 19 20 21 22 23 24 25 26 27 28 29 30 31 32 33 34 35 36 37 38 39 40 41 42 43 44 45 46 47 48 49 50
000
ASUS43 KMPX 300410
RWRMN
WEATHER ROUNDUP FOR MINNESOTA
NATIONAL WEATHER SERVICE TWIN CITIES/CHANHASSEN MN
1100 PM CDT MON JUN 29 2015


NOTE: "FAIR" INDICATES FEW OR NO CLOUDS BELOW 12,000 FEET WITH NO
SIGNIFICANT WEATHER AND/OR OBSTRUCTIONS TO VISIBILITY. N/A MEANS
CURRENT SKY AND/OR WEATHER CONDITIONS ARE NOT AVAILABLE.

MNZ060>063-068>070-300500-
   Twin Cities Metro

CITY           SKY/WX    TMP DP  RH WIND       PRES   REMARKS
TWIN CITIES    PTCLDY    66  62  87 CALM      29.82S
ST PAUL        CLEAR     63  62  97 CALM      29.83R
CRYSTAL        CLEAR     65  62  90 CALM      29.81S FOG
BLAINE         CLEAR     64  64 100 CALM      29.82S FOG
LAKEVILLE      PTCLDY    63  59  88 SW3       29.82F
EDEN PRAIRIE   CLEAR     65  63  93 W3        29.82R FOG
SOUTH ST PAUL  CLEAR     63  61  94 CALM      29.82S
LAKE ELMO      FAIR      61  61 100 CALM      29.84S FOG
$$
MNZ001>005-007-008-013>017-022>024-027-028-300500-
   Northwest Minnesota

CITY           SKY/WX    TMP DP  RH WIND       PRES   REMARKS
BEMIDJI        CLEAR     61  56  85 N5        29.92R
HALLOCK        CLEAR     63  57  82 N6        29.93R
ROSEAU         CLEAR     63  57  82 CALM      29.93R
WARROAD        CLEAR     61  55  82 CALM      29.93S
THIEF RVR FALL CLEAR     64  61  88 N5        29.93R
CROOKSTON      CLEAR     63  59  88 N7        29.92S
FOSSTON        CLEAR     61  55  82 CALM      29.93R
DETROIT LAKES  CLEAR     66  61  82 N7        29.92S
MOORHEAD       CLEAR     64  61  88 N7        29.91S
PARK RAPIDS    CLEAR     70  57  63 N9        29.90R
MAHNOMEN       FAIR      64  60  87 N6        29.91R
$$
MNZ006-009>011-018-025>026-300500-
   North Central Minnesota

CITY           SKY/WX    TMP DP  RH WIND       PRES   REMARKS
BAUDETTE       CLEAR     64  55  72 NE7       29.92R
FLAG ISLAND    CLEAR     66  55  68 NE10G17   29.93R
INTL FALLS     CLEAR     64  55  72 NE8       29.91R
WASKISH        CLEAR     64  57  77 CALM      29.92R
BIG FORK       CLEAR     55  54  94 CALM      29.91R
LONGVILLE      CLEAR     66  57  72 CALM      29.90R
GRAND RAPIDS   CLEAR     61  54  77 N3        29.90S
CRANE LAKE     CLEAR     63  55  77 N7        29.91R
ORR            PTCLDY    61  55  82 CALM      29.87R
COOK           MOCLDY    57  55  94 CALM      29.89S
WALKER         FAIR      65  56  75 N3        29.91R
$$
MNZ012-019>021-037-300500-
   Northeast Minnesota

CITY           SKY/WX    TMP DP  RH WIND       PRES   REMARKS
DULUTH         CLEAR     63  57  81 N6        29.86R
ELY            PTCLDY    61  55  82 CALM      29.88R
HIBBING        CLEAR     57  54  89 NW5       29.88R
EVELETH        CLEAR     63  55  77 N5        29.89R
DULUTH HARBOR  CLEAR     63  61  94 CALM      29.84R
TWO HARBORS    PTCLDY    66  59  77 N5        29.83R
GRAND MARAIS     N/A     54  53  97 W3        29.84R
G MARAIS ARPRT CLOUDY    57  54  88 N7        29.88R
$$
MNZ029>031-032-039>041-046>048-054>057-064-300500-
   West Central Minnesota

CITY           SKY/WX    TMP DP  RH WIND       PRES   REMARKS
FERGUS FALLS   FAIR      66  66 100 N8        29.89S
WHEATON        CLEAR     64  61  88 NW3       29.92S
MORRIS         CLEAR     66  63  88 NW5       29.89R
ALEXANDRIA     CLEAR     68  64  87 N9        29.91R
ELBOW LAKE     FAIR      68  64  88 N7        29.89S
WADENA         CLEAR     64  63  94 NW6       29.89R
GLENWOOD       CLEAR     66  63  88 NW6       29.90R
APPLETON       CLEAR     70  63  78 N6        29.89R
BENSON         CLEAR     66  63  88 N6        29.89S
ORTONVILLE     CLEAR     68  63  83 NW6       29.91R
MADISON        CLEAR     70  63  78 N8        29.90R
WILLMAR        FAIR      66  64  94 NW6       29.89S
$$
MNZ033>034-036-042>043-049>051-058-059-300500-
   Central Minnesota

CITY           SKY/WX    TMP DP  RH WIND       PRES   REMARKS
ST CLOUD       CLEAR     64  62  93 W3        29.84R
SAUK CENTRE    FAIR      67  64  87 NW6       29.89R
PAYNESVILLE    CLEAR     65  63  93 W5        29.88R
AITKIN         CLEAR     68  59  73 N8        29.86R
PINE RIVER       N/A     68  59  73 N7        29.93R
BRAINERD       CLEAR     70  57  63 N8        29.87R
STAPLES        PTCLDY    64  57  77 N3        29.89R
LONG PRAIRIE   MOCLDY    66  63  88 CALM      29.89R
LITTLE FALLS   CLEAR     66  55  68 NW3       29.86S
LITCHFIELD     CLEAR     72  66  83 NW6       29.87R
BUFFALO        CLEAR     67  62  82 CALM      29.84S
MAPLE LAKE     CLEAR     65  63  94 CALM      29.85S
$$
MNZ037-044-045-052-053-300500-
   East Central Minnesota

CITY           SKY/WX    TMP DP  RH WIND       PRES   REMARKS
PRINCETON      CLEAR     64  61  88 CALM      29.83S
MORA           LGT RAIN  64  61  88 NE7       29.86R
CAMBRIDGE      HVY RAIN  66  57  72 CALM      29.83R
MOOSE LAKE     PTCLDY    63  63 100 NE3       29.84R
HINCKLEY       FAIR      63  61  94 CALM      29.84R FOG
CLOQUET        CLEAR     63  55  77 NW3       29.87R
MCGREGOR       CLEAR     66  59  77 N6        29.87S
$$
MNZ071>073-080-081-089-090-097-098-300500-
   Southwest Minnesota

CITY           SKY/WX    TMP DP  RH WIND       PRES   REMARKS
MONTEVIDEO     CLEAR     68  63  83 N8        29.89S
GRANITE FALLS  CLOUDY    68  64  84 NW7       29.90R
CANBY          CLEAR     66  63  87 NW3       29.92R
MARSHALL       CLEAR     68  61  77 N7        29.90R
REDWOOD FALLS  CLEAR     70  64  81 NW9       29.87R
OLIVIA         CLEAR     68  63  83 NW8       29.87R
PIPESTONE      PTCLDY    72  63  73 N5        29.93R
WINDOM         CLEAR     68  63  83 NW7       29.89S
WORTHINGTON    PTCLDY    66  59  77 NW8       29.91S
JACKSON        CLEAR     68  61  77 W5        29.90R
TRACY          CLOUDY    68  64  86 NW6       29.90R
SLAYTON        CLEAR     65  62  89 CALM      29.92S
$$
MNZ065>067-074>077-082>085-091>093-300500-
   South Central Minnesota

CITY           SKY/WX    TMP DP  RH WIND       PRES   REMARKS
MANKATO        CLEAR     70  63  78 NW8       29.83S
NEW ULM        CLEAR     68  64  88 NW10      29.85S
ST JAMES       CLEAR     70  64  83 NW7       29.87R
FAIRMONT       CLEAR     70  59  68 NW9       29.86S
GLENCOE        CLEAR     70  66  89 CALM      29.84R
FARIBAULT      PTCLDY    63  61  94 CALM      29.84R
OWATONNA       PTCLDY    66  57  72 SE5       29.84R
WASECA         PTCLDY    64  61  88 CALM      29.85S
ALBERT LEA     PTCLDY    68  61  77 S3        29.85S
$$
MNZ078>079-086>088-094>096-300500-
   Southeast Minnesota

CITY           SKY/WX    TMP DP  RH WIND       PRES   REMARKS
ROCHESTER      PTCLDY    61  59  93 S7        29.84S
RED WING       CLEAR     61  59  94 CALM      29.81S
STANTON        PTCLDY    63  59  88 SW7       29.81F
DODGE CENTER   PTCLDY    63  59  88 SW5       29.84F
WINONA         MOCLDY    61  59  94 CALM      29.82S
AUSTIN         CLOUDY    63  57  82 CALM      29.84F
PRESTON        MOCLDY    59  57  94 SW5       29.85F
$$
ABBREVIATIONS USED IN REMARKS
   TC - TEMPERATURES IN CELSIUS
  WCI - WIND CHILL INDEX
   HX - HEAT INDEX
  VSB - VISIBILITY
$$


USA.gov is the U.S. government's official web portal to all federal, state and local government web resources and services.